This is the latest recevied weather packets stored in our database for station/object KJ5EHN. If no packets are shown the sender has not sent any weather packets the latest 1 day(s).
| Time | Temp. | Humidity | Pressure | Rain* | Wind** | Luminosity | Snow |
|---|---|---|---|---|---|---|---|
| 1778039323 | 16.11° C | 80% | 1009.3 hPa | 0 mm | 0.45 m/s, 263° | - | - |
| 1778039020 | 16.11° C | 81% | 1009.4 hPa | 0 mm | 0.89 m/s, 170° | - | - |
| 1778038716 | 16.11° C | 81% | 1009.4 hPa | 0 mm | 0.45 m/s, 147° | - | - |
| 1778038414 | 16.67° C | 80% | 1009.2 hPa | 0 mm | 0.45 m/s, 354° | - | - |
| 1778038110 | 16.67° C | 81% | 1009.1 hPa | 0 mm | 0.45 m/s, 289° | - | - |
| 1778037807 | 16.67° C | 81% | 1009.3 hPa | 0 mm | 0.89 m/s, 147° | - | - |
| 1778037504 | 16.67° C | 80% | 1009 hPa | 0 mm | 0.89 m/s, 234° | - | - |
| 1778037202 | 16.67° C | 81% | 1009 hPa | 0 mm | 0 m/s | - | - |
| 1778036899 | 16.67° C | 81% | 1008.8 hPa | 0 mm | 0.89 m/s, 253° | - | - |
| 1778036597 | 16.67° C | 80% | 1008.8 hPa | 0 mm | 0.45 m/s, 165° | - | - |
| 1778036293 | 16.67° C | 80% | 1008.7 hPa | 0 mm | 0.45 m/s, 164° | - | - |
| 1778035990 | 17.22° C | 80% | 1008.5 hPa | 0 mm | 0.45 m/s, 326° | - | - |
| 1778035687 | 17.22° C | 80% | 1008.5 hPa | 0 mm | 0.89 m/s, 178° | - | - |
| 1778035384 | 17.22° C | 80% | 1008.3 hPa | 0 mm | 0.89 m/s, 222° | - | - |
| 1778035080 | 17.78° C | 81% | 1008 hPa | 0 mm | 0 m/s | - | - |
| 1778034777 | 17.78° C | 81% | 1007.9 hPa | 0 mm | 0 m/s | - | - |
| 1778034473 | 17.78° C | 80% | 1007.5 hPa | 0 mm | 0.89 m/s, 77° | - | - |
| 1778034172 | 17.78° C | 80% | 1007.7 hPa | 0 mm | 0.45 m/s, 219° | - | - |
| 1778033869 | 18.33° C | 80% | 1007.3 hPa | 0 mm | 0.89 m/s, 245° | - | - |
| 1778033566 | 18.33° C | 80% | 1007.4 hPa | 0 mm | 0.89 m/s, 224° | - | - |
| 1778033263 | 18.33° C | 79% | 1007.3 hPa | 0 mm | 0.89 m/s, 321° | - | - |
| 1778032960 | 18.89° C | 79% | 1007.2 hPa | 0 mm | 0.45 m/s, 1° | - | - |
| 1778032658 | 19.44° C | 79% | 1006.9 hPa | 0 mm | 1.34 m/s, 251° | - | - |
| 1778032355 | 19.44° C | 79% | 1007 hPa | 0 mm | 0.45 m/s, 148° | - | - |
| 1778032052 | 19.44° C | 78% | 1007.1 hPa | 0 mm | 0.89 m/s, 293° | - | - |
* Rain latest hour (hover to see other rain measurements)
** Current wind speed in m/s (hover to see current wind gust speed)